TimeCEST,TemperatureF,Dew PointF,Humidity,Sea Level PressureIn,VisibilityMPH,Wind Direction,Wind SpeedMPH,Gust SpeedMPH,PrecipitationIn,Events,Conditions,WindDirDegrees,DateUTC
12:00 AM,50.0,48.2,94,30.06,-9999.0,WSW,9.2,-,N/A,,Clear,240,2013-09-20 22:00:00
12:30 AM,51.8,48.2,88,30.06,-9999.0,SW,8.1,-,N/A,,Clear,220,2013-09-20 22:30:00
1:00 AM,51.8,48.2,88,30.06,-9999.0,WSW,10.4,-,N/A,,Clear,240,2013-09-20 23:00:00
1:30 AM,51.8,48.2,88,30.06,6.2,WSW,9.2,-,N/A,,Partly Cloudy,240,2013-09-20 23:30:00
2:00 AM,52,49,86,30.10,16,WSW,11.2,,,,Mostly Cloudy,250,2013-09-21 00:00:00
2:00 AM,51.8,50.0,94,30.06,6.2,WSW,11.5,-,N/A,,Mostly Cloudy,250,2013-09-21 00:00:00
2:30 AM,51.8,50.0,94,30.09,6.2,WSW,12.7,-,N/A,,Mostly Cloudy,250,2013-09-21 00:30:00
3:00 AM,51.8,50.0,94,30.09,6.2,WSW,11.5,-,N/A,,Mostly Cloudy,240,2013-09-21 01:00:00
3:30 AM,51.8,50.0,94,30.09,6.2,WSW,10.4,-,N/A,,Mostly Cloudy,250,2013-09-21 01:30:00
4:00 AM,51.8,50.0,94,30.12,6.2,West,10.4,-,N/A,,Mostly Cloudy,280,2013-09-21 02:00:00
4:30 AM,51.8,48.2,88,30.12,6.2,West,6.9,-,N/A,,Scattered Clouds,270,2013-09-21 02:30:00
5:00 AM,51.8,48.2,88,30.12,6.2,WSW,5.8,-,N/A,,Partly Cloudy,250,2013-09-21 03:00:00
5:30 AM,51.8,48.2,88,30.12,6.2,West,9.2,-,N/A,,Mostly Cloudy,260,2013-09-21 03:30:00
6:00 AM,51.8,50.0,94,30.12,6.2,West,11.5,-,N/A,Rain,Light Rain Showers,270,2013-09-21 04:00:00
6:17 AM,51.8,48.2,88,30.15,6.2,West,10.4,-,N/A,,Partly Cloudy,260,2013-09-21 04:17:00
6:30 AM,51.8,48.2,88,30.15,-9999.0,West,10.4,-,N/A,,Clear,260,2013-09-21 04:30:00
7:00 AM,51.8,48.2,88,30.15,-9999.0,West,8.1,-,N/A,,Clear,280,2013-09-21 05:00:00
7:30 AM,51.8,48.2,88,30.15,-9999.0,West,10.4,-,N/A,,Clear,270,2013-09-21 05:30:00
8:00 AM,51.8,48.2,88,30.18,6.2,West,9.2,-,N/A,,Partly Cloudy,280,2013-09-21 06:00:00
8:30 AM,51.8,48.2,88,30.18,6.2,West,10.4,-,N/A,,Partly Cloudy,270,2013-09-21 06:30:00
9:00 AM,53.6,48.2,82,30.18,6.2,West,10.4,-,N/A,,Partly Cloudy,280,2013-09-21 07:00:00
9:30 AM,55.4,48.2,77,30.18,6.2,West,11.5,-,N/A,,Partly Cloudy,280,2013-09-21 07:30:00
10:00 AM,55.4,48.2,77,30.21,6.2,West,12.7,-,N/A,,Scattered Clouds,280,2013-09-21 08:00:00
10:30 AM,55.4,48.2,77,30.21,6.2,WNW,10.4,-,N/A,,Mostly Cloudy,300,2013-09-21 08:30:00
11:00 AM,53.6,48.2,82,30.21,6.2,WNW,13.8,-,N/A,,Mostly Cloudy,300,2013-09-21 09:00:00
11:30 AM,55.4,50.0,82,30.24,6.2,NW,13.8,-,N/A,,Scattered Clouds,310,2013-09-21 09:30:00
12:00 PM,55.4,50.0,82,30.24,6.2,NW,12.7,-,N/A,,Mostly Cloudy,310,2013-09-21 10:00:00
12:30 PM,57.2,48.2,72,30.24,6.2,NW,12.7,-,N/A,,Mostly Cloudy,310,2013-09-21 10:30:00
1:00 PM,57.2,48.2,72,30.24,6.2,NW,12.7,-,N/A,,Mostly Cloudy,320,2013-09-21 11:00:00
1:30 PM,55.4,50.0,82,30.27,6.2,NNW,15.0,-,N/A,Rain,Light Rain Showers,330,2013-09-21 11:30:00
1:37 PM,55.4,50.0,82,30.27,6.2,NNW,12.7,-,N/A,,Mostly Cloudy,340,2013-09-21 11:37:00
2:00 PM,56,49,72,30.27,25,NNW,13.4,,,Rain,Light Rain Showers,340,2013-09-21 12:00:00
2:00 PM,57.2,50.0,77,30.27,6.2,NNW,10.4,-,N/A,,Mostly Cloudy,340,2013-09-21 12:00:00
2:30 PM,55.4,48.2,77,30.27,6.2,NNW,11.5,-,N/A,,Mostly Cloudy,340,2013-09-21 12:30:00
3:00 PM,55.4,48.2,77,30.27,6.2,NW,12.7,-,N/A,,Mostly Cloudy,320,2013-09-21 13:00:00
3:30 PM,55.4,48.2,77,30.27,6.2,NW,9.2,-,N/A,,Partly Cloudy,310,2013-09-21 13:30:00
4:00 PM,57.2,50.0,77,30.27,6.2,NW,10.4,-,N/A,,Partly Cloudy,320,2013-09-21 14:00:00
4:30 PM,57.2,48.2,72,30.27,6.2,WNW,8.1,-,N/A,,Partly Cloudy,300,2013-09-21 14:30:00
5:00 PM,57.2,48.2,72,30.27,6.2,WNW,8.1,-,N/A,,Partly Cloudy,300,2013-09-21 15:00:00
5:30 PM,55.4,48.2,77,30.30,6.2,WNW,8.1,-,N/A,,Partly Cloudy,290,2013-09-21 15:30:00
6:00 PM,55.4,48.2,77,30.30,6.2,WNW,9.2,-,N/A,,Partly Cloudy,290,2013-09-21 16:00:00
6:30 PM,55.4,48.2,77,30.30,6.2,WNW,6.9,-,N/A,,Partly Cloudy,300,2013-09-21 16:30:00
7:00 PM,53.6,48.2,82,30.30,6.2,West,6.9,-,N/A,,Partly Cloudy,280,2013-09-21 17:00:00
7:30 PM,51.8,48.2,88,30.30,-9999.0,West,4.6,-,N/A,,Clear,270,2013-09-21 17:30:00
8:00 PM,51,48,85,30.34,19,WSW,6.7,,,,Mostly Cloudy,250,2013-09-21 18:00:00
8:00 PM,50.0,48.2,94,30.30,-9999.0,West,6.9,-,N/A,,Clear,260,2013-09-21 18:00:00
8:30 PM,50.0,48.2,94,30.33,-9999.0,West,6.9,-,N/A,,Clear,270,2013-09-21 18:30:00
9:00 PM,50.0,48.2,94,30.33,-9999.0,West,5.8,-,N/A,,Clear,280,2013-09-21 19:00:00
9:30 PM,48.2,46.4,93,30.33,-9999.0,West,6.9,-,N/A,,Clear,280,2013-09-21 19:30:00
10:00 PM,48.2,46.4,93,30.33,-9999.0,West,6.9,-,N/A,,Clear,270,2013-09-21 20:00:00
10:30 PM,48.2,46.4,93,30.33,-9999.0,WNW,8.1,-,N/A,,Clear,290,2013-09-21 20:30:00
11:00 PM,48.2,46.4,93,30.33,-9999.0,West,6.9,-,N/A,,Clear,270,2013-09-21 21:00:00
11:30 PM,48.2,46.4,93,30.33,-9999.0,West,5.8,-,N/A,,Clear,270,2013-09-21 21:30:00